Flight Track Log - Related Links

Times and Time Zones

All times are in EDT time to prevent confusion due to time zone crossing. See the DAL3673 flight status page for this flight to view local times or setup timezone preferences in your user account.

Time Position Orientation Groundspeed Altitude Reporting Facility
EDT Latitude Longitude Course Direction KTS MPH feet Rate Location/Type
Mon 03:43:06 PM 44.8372 -93.2256 165° South 161 185 2,500  Level FAA TRACON SMA TRACON (SMA)
Mon 03:43:25 PM 44.8211 -93.2194 165° South 185 213 3,200 2,595 Climbing FAA TRACON SMA TRACON (SMA)
Mon 03:43:43 PM 44.8042 -93.2133 166° South 201 231 4,100 2,211 Climbing FAA TRACON SMA TRACON (SMA)
Mon 03:44:03 PM 44.7858 -93.2067 166° South 214 246 4,600 1,385 Climbing FAA TRACON SMA TRACON (SMA)
Mon 03:44:22 PM 44.7656 -93.1994 166° South 237 273 5,000 2,250 Climbing FAA TRACON SMA TRACON (SMA)
Mon 03:44:43 PM 44.7383 -93.1903 167° South 259 298 6,100 3,150 Climbing FAA TRACON SMA TRACON (SMA)
Mon 03:45:02 PM 44.7164 -93.1819 165° South 265 305 7,100 2,400 Climbing FAA TRACON SMA TRACON (SMA)
Mon 03:45:23 PM 44.6936 -93.1742 166° South 270 311 7,700 1,800 Climbing FAA TRACON SMA TRACON (SMA)
Mon 03:45:42 PM 44.6694 -93.1656 166° South 284 327 8,300 2,462 Climbing FAA TRACON SMA TRACON (SMA)
Mon 03:46:02 PM 44.6386 -93.1542 165° South 295 339 9,300 2,927 Climbing FAA TRACON SMA TRACON (SMA)
Mon 03:46:23 PM 44.6183 -93.1300 140° Southeast 314 361 10,300 2,400 Climbing FAA TRACON SMA TRACON (SMA)
Mon 03:46:42 PM 44.6036 -93.0964 122° Southeast 326 375 10,900 1,050 Climbing FAA TRACON SMA TRACON (SMA)
Mon 03:47:03 PM 44.5844 -93.0494 120° Southeast 350 403 11,000 150 Climbing FAA TRACON SMA TRACON (SMA)
Mon 03:47:22 PM 44.5686 -93.0089 119° Southeast 374 430 11,000  Level FAA TRACON SMA TRACON (SMA)
Mon 03:47:42 PM 44.5522 -92.9658 118° Southeast 396 456 11,000  Level FAA TRACON SMA TRACON (SMA)
Mon 03:48:03 PM 44.5306 -92.9125 120° Southeast 407 468 11,000 -150 Level FAA TRACON SMA TRACON (SMA)
Mon 03:48:22 PM 44.5139 -92.8686 118° Southeast 414 476 10,900 -150 Descending FAA TRACON SMA TRACON (SMA)
Mon 03:48:43 PM 44.4975 -92.8236 117° Southeast 418 481 10,900  Level FAA TRACON SMA TRACON (SMA)
Mon 03:49:02 PM 44.4764 -92.7678 118° Southeast 420 483 10,900  Level FAA TRACON SMA TRACON (SMA)
Mon 03:49:23 PM 44.4597 -92.7228 117° Southeast 421 484 10,900  Level FAA TRACON SMA TRACON (SMA)
Mon 03:49:43 PM 44.4433 -92.6769 117° Southeast 424 488 10,900  Level FAA TRACON SMA TRACON (SMA)
Mon 03:50:03 PM 44.4217 -92.6228 119° Southeast 417 480 10,900  Level FAA TRACON SMA TRACON (SMA)
Mon 03:50:23 PM 44.4061 -92.5769 115° Southeast 419 482 10,900  Level FAA TRACON SMA TRACON (SMA)
Mon 03:50:43 PM 44.3886 -92.5344 120° Southeast 414 476 10,900  Level FAA TRACON SMA TRACON (SMA)
Mon 03:51:02 PM 44.3681 -92.4792 117° Southeast 413 475 10,900  Level FAA TRACON SMA TRACON (SMA)
Mon 03:51:23 PM 44.3514 -92.4358 118° Southeast 411 473 10,900  Level FAA TRACON SMA TRACON (SMA)
Mon 03:51:43 PM 44.3364 -92.3908 115° Southeast 412 474 10,900  Level FAA TRACON SMA TRACON (SMA)
Mon 03:52:02 PM 44.3142 -92.3386 121° Southeast 409 471 10,900  Level FAA TRACON SMA TRACON (SMA)
Mon 03:52:23 PM 44.2989 -92.2944 116° Southeast 408 470 10,900  Level FAA TRACON SMA TRACON (SMA)
Mon 03:52:42 PM 44.2839 -92.2500 115° Southeast 409 471 10,900  Level FAA TRACON SMA TRACON (SMA)
Mon 03:53:03 PM 44.2617 -92.1986 121° Southeast 406 467 10,900  Level FAA TRACON SMA TRACON (SMA)
Mon 03:53:23 PM 44.2497 -92.1656 117° Southeast 405 466 10,900 102 Level FAA TRACON SMA TRACON (SMA)
Mon 03:54:02 PM 44.2053 -92.0778 125° Southeast 405 466 11,000 -60 Climbing Minneapolis Center
Mon 03:55:03 PM 44.1497 -91.9347 118° Southeast 391 450 10,800 -634 Descending Minneapolis Center
Mon 03:56:05 PM 44.1072 -91.8267 119° Southeast 327 376 9,700 -1,220 Descending Minneapolis Center
Mon 03:57:06 PM 44.0650 -91.7214 119° Southeast 315 362 8,300 -1,463 Descending Minneapolis Center
Mon 03:58:08 PM 44.0222 -91.6136 119° Southeast 299 344 6,700 -1,561 Descending Minneapolis Center
Mon 03:59:09 PM 43.9839 -91.5172 119° Southeast 291 335 5,100 -1,561 Descending Minneapolis Center
Mon 04:00:11 PM 43.9450 -91.4203 119° Southeast 270 311 3,500 -976 Descending Minneapolis Center
Mon 04:01:12 PM 43.9414 -91.3464 94° East 210 242 3,100 -585 Descending Minneapolis Center
Mon 04:02:14 PM 43.9417 -91.2719 90° East 172 198 2,300 -774 Descending Minneapolis Center

Login

Don't have an account? Register now (free) for customized features, flight alerts, and more!